Dewpoint
41 42 43 43 44 44 44 44 44 46 47 47 47 47 48 49 47 35 28 38 43 49 54 32 31 35 29 24 20 15 10 4 7 10 8 10 9 10 12 9 25 47 47 49 57
41 42 42 43 44 43 43 44 46 47 48 48 48 48 49 50 43 22 31 44 45 49 22 24 28 34 26 27 21 14 6 2 12 12 11 12 11 9 8 7 12 37 52 55 58
41 42 43 43 43 43 44 45 47 47 48 48 48 49 49 49 27 21 34 38 37 30 21 26 30 32 25 26 22 16 10 12 13 22 25 18 16 13 8 3 8 13 42 54 57
42 42 43 43 43 44 45 46 47 48 48 48 49 49 49 43 11 22 34 35 33 21 18 22 30 29 27 26 31 21 23 28 28 29 28 25 20 14 14 10 10 11 22 53 55
42 43 43 43 44 45 46 46 47 47 48 49 49 48 40 20 18 26 31 24 18 17 18 16 15 20 22 26 28 27 28 29 28 25 24 24 20 19 17 14 15 17 50 52 54
42 42 43 43 44 45 46 47 47 48 49 49 49 47 26 12 21 24 24 21 19 16 18 21 20 15 18 18 26 24 27 23 18 21 18 18 21 17 12 10 9 37 51 52 54
42 42 43 43 44 45 46 47 48 49 50 49 48 41 21 20 26 24 26 21 20 16 18 19 20 12 11 4 17 23 8 9 15 16 16 15 9 13 17 17 15 15 27 51 53
41 42 42 44 45 46 47 48 49 48 48 47 47 38 20 27 28 25 27 21 20 17 17 19 21 14 14 14 9 16 15 4 14 15 15 14 6 14 16 17 18 18 17 20 49
42 41 42 44 45 47 48 48 45 44 44 44 35 23 18 23 23 24 27 21 19 19 18 24 18 14 15 12 0 13 10 12 12 15 15 15 12 15 16 17 20 20 18 17 17
42 41 42 43 46 47 47 44 41 36 36 36 34 17 21 20 21 25 26 22 20 20 18 13 14 12 14 8 -3 7 10 12 12 14 15 16 16 18 18 19 18 16 16 17 17
41 41 42 44 46 47 38 29 19 20 27 23 24 19 20 21 25 22 24 22 23 22 15 15 15 14 13 13 12 12 12 10 12 14 14 16 18 19 19 16 14 13 14 18 19
41 41 43 45 46 46 38 33 36 34 19 31 29 26 24 22 18 20 24 21 21 19 18 12 14 16 16 18 17 14 13 12 13 14 12 17 16 16 15 15 13 13 17 18 18
41 41 44 45 46 40 39 40 43 38 19 18 26 22 23 23 20 19 22 22 21 20 22 13 17 19 21 20 18 17 14 13 13 13 16 16 12 17 16 19 17 15 15 17 18
40 41 44 45 38 40 37 42 43 40 7 10 16 20 17 16 11 19 23 22 23 20 22 17 20 20 19 17 20 16 16 15 14 13 11 15 10 12 17 13 17 15 17 23 25
40 43 44 44 39 36 40 43 44 30 -11 6 14 19 16 13 13 24 28 25 24 23 18 17 19 20 18 19 20 15 19 19 17 14 13 16 17 13 18 23 27 28 27 28 29
41 43 44 40 40 42 43 43 33 6 -13 10 15 15 15 17 20 25 28 29 28 24 23 23 24 21 21 21 20 20 20 22 20 16 12 11 15 16 27 27 26 26 28 28 29
42 44 43 42 33 43 43 34 8 -8 14 11 12 18 16 17 20 28 28 27 25 9 20 23 20 23 25 16 18 20 22 15 11 14 13 19 21 27 28 28 27 26 26 28 30
43 43 41 42 43 43 35 16 -10 10 14 16 17 17 15 18 18 24 25 25 26 27 25 18 6 23 24 18 17 19 23 17 11 14 17 25 19 26 28 30 34 33 31 29 30
42 39 40 41 43 41 24 4 -4 16 16 15 19 15 16 18 18 21 28 28 28 26 21 21 16 23 23 21 21 23 22 26 24 27 23 23 26 27 29 29 33 35 33 33 32
38 36 39 41 42 32 19 10 19 21 17 19 13 17 14 16 16 16 26 29 23 23 28 27 12 23 18 21 24 27 28 25 26 18 15 17 26 25 25 27 30 34 34 34 33
36 34 38 39 35 25 5 17 24 18 19 19 18 16 17 16 16 16 25 23 16 17 25 20 21 13 20 11 13 25 21 26 28 28 21 20 24 24 25 27 31 34 35 33 33
34 30 37 36 23 24 18 25 24 16 16 14 16 18 17 16 16 16 19 18 20 18 14 20 19 12 13 17 16 25 22 22 19 19 21 25 22 28 30 31 32 31 32 32 30
33 32 37 30 13 22 28 28 24 16 15 17 16 17 17 16 13 17 19 20 19 18 16 18 16 4 16 22 23 24 22 20 19 22 22 21 19 23 29 31 28 28 29 28 28
33 28 31 29 26 24 26 24 20 18 17 17 17 17 17 17 18 19 18 21 21 19 24 23 17 10 -8 7 19 14 19 20 18 15 13 19 18 18 25 28 27 27 29 28 28
31 25 26 13 23 24 22 23 19 16 17 17 15 17 16 16 17 16 18 18 20 25 20 20 14 19 19 20 21 20 19 17 15 14 12 7 14 17 27 28 27 28 29 28 28
32 28 29 23 28 25 24 21 18 19 17 15 15 20 18 15 14 15 18 18 16 19 18 19 12 17 13 15 15 13 14 16 17 17 18 18 18 26 29 30 27 28 27 27 28
34 33 28 28 28 22 21 23 20 22 21 18 18 19 17 18 19 18 20 20 19 17 18 18 18 17 11 16 17 12 16 15 23 23 22 25 27 29 30 30 29 27 28 28 29
Wind_Speed
15 17 18 19 19 19 20 20 20 20 20 20 20 21 21 22 21 5 14 8 10 20 17 13 7 12 3 3 3 2 1 5 2 4 3 12 15 8 8 6 8 3 2 3 25
17 17 18 18 18 19 20 21 21 20 20 19 19 19 19 18 4 18 6 15 15 15 9 12 11 11 4 3 4 2 3 4 1 3 8 14 11 15 11 17 3 4 6 17 24
18 17 18 20 21 20 20 21 21 20 20 20 17 16 16 8 4 6 14 21 17 12 3 3 3 4 5 4 6 3 1 5 4 8 12 9 9 13 11 9 1 10 4 14 19
17 18 20 20 20 21 22 22 21 19 19 19 17 15 15 0 2 6 17 19 13 10 11 10 6 4 5 3 5 2 4 7 10 16 10 11 10 7 14 19 17 24 17 19 22
17 19 20 21 22 21 22 21 20 20 19 15 15 15 3 8 3 7 18 14 8 8 13 7 13 3 4 3 7 3 9 14 17 16 17 13 15 14 19 23 25 19 5 20 22
19 20 20 21 22 23 23 23 21 18 15 13 12 11 2 11 6 11 14 10 9 7 9 10 4 3 5 4 4 8 9 11 11 14 11 21 16 3 5 16 18 7 11 16 21
20 21 22 23 24 24 24 23 20 15 12 9 10 4 17 7 5 13 10 7 4 3 5 4 3 6 2 4 7 6 11 10 18 26 9 29 8 4 15 26 26 30 19 14 18
21 21 23 24 26 26 25 23 15 7 6 7 8 2 6 4 10 11 12 12 10 4 1 3 3 7 5 4 7 6 6 9 13 29 13 17 10 15 28 24 26 27 29 20 17
21 22 23 25 27 28 26 18 9 4 3 8 4 5 4 11 7 9 4 11 7 7 14 10 7 6 10 5 5 14 5 9 17 17 20 10 26 14 28 28 24 23 27 28 22
20 22 23 25 27 28 28 7 8 5 4 2 2 6 4 4 6 9 5 5 5 5 6 10 8 13 15 17 6 8 7 6 13 14 15 23 30 24 24 21 25 20 26 29 28
20 21 23 24 27 28 13 4 4 4 10 6 2 4 2 7 3 6 5 6 7 10 7 9 19 16 10 8 3 2 4 13 13 16 21 14 31 26 25 24 24 24 18 26 29
20 21 23 24 26 23 5 7 3 2 8 1 2 3 3 2 5 10 6 6 15 17 7 8 21 7 5 6 4 4 7 10 11 10 18 21 36 24 18 19 22 21 21 20 25
19 20 21 23 20 5 10 5 7 2 5 3 2 2 3 2 3 7 6 3 9 14 11 12 4 7 8 10 11 7 4 6 12 12 10 15 16 16 32 19 19 19 21 19 21
18 18 20 25 2 3 3 10 6 2 5 2 2 2 2 1 5 5 7 2 6 8 4 6 5 7 9 11 4 4 4 8 13 12 11 8 16 20 16 31 24 23 22 20 20
16 17 17 8 2 3 6 12 4 2 2 1 2 1 6 8 2 13 6 7 7 5 6 2 7 8 5 9 6 6 13 13 9 7 6 6 7 15 23 25 27 26 26 26 23
15 16 17 4 1 1 9 5 2 2 4 2 2 3 5 10 5 5 8 9 4 5 7 4 3 4 6 11 7 11 6 8 5 3 4 7 5 9 18 19 29 30 28 28 29
15 17 13 2 1 8 5 2 3 3 1 2 3 4 7 7 7 8 12 16 9 6 12 9 5 6 10 12 9 16 9 7 8 7 5 9 7 11 17 20 22 27 25 26 24
16 16 3 4 3 5 3 4 5 3 4 2 4 7 6 5 5 4 4 6 12 7 5 7 0 7 11 2 4 8 2 5 2 4 9 10 7 1 23 22 26 28 31 26 30
14 3 3 1 1 2 5 4 3 6 7 9 5 5 2 3 4 4 5 3 4 6 4 3 3 6 7 6 1 4 3 2 3 1 4 2 5 5 22 23 23 29 30 29 28
7 3 3 1 2 3 3 4 3 3 7 4 5 3 5 3 3 4 3 1 2 4 1 2 2 1 7 5 5 4 4 2 3 2 4 3 4 5 14 16 13 13 20 26 26
3 2 3 2 3 3 4 6 4 3 5 4 6 6 5 5 4 4 5 1 2 1 5 1 1 2 3 3 4 7 5 4 1 2 2 5 2 7 13 17 13 14 15 18 25
1 4 1 4 4 1 5 7 4 7 3 4 5 6 7 6 5 5 5 4 4 2 2 1 2 4 3 9 4 3 3 5 4 1 3 5 6 8 13 17 18 15 15 18 20
4 2 1 4 8 7 3 4 3 6 7 5 4 4 4 7 5 5 6 8 5 4 5 4 2 2 2 2 4 3 3 5 3 2 9 5 6 12 15 18 15 15 13 14 18
4 7 1 3 1 8 10 8 7 3 5 6 6 6 7 4 2 8 6 6 2 4 3 5 4 6 5 1 2 6 5 2 3 5 7 16 20 18 15 15 16 16 13 14 15
5 6 4 9 10 7 6 13 13 8 5 7 4 6 9 6 5 6 4 2 2 4 3 5 5 6 13 13 8 13 16 14 12 15 10 14 16 13 11 12 9 9 10 13 16
6 6 2 3 9 14 7 13 16 8 12 10 6 13 11 7 7 10 9 5 5 3 3 1 2 0 6 5 8 13 15 13 15 16 19 22 25 3 9 9 7 9 12 16 17
5 2 2 6 10 10 10 13 16 15 4 8 15 11 10 10 8 6 10 7 7 10 5 3 4 3 3 4 8 10 10 9 4 3 5 7 3 7 8 11 7 7 8 10 15
Wind_Direction
348 345 344 341 339 339 335 336 336 338 336 337 336 334 338 341 333 48 41 320 307 313 326 314 13 358 57 71 44 112 100 252 239 154 299 1 353 331 307 337 324 167 188 169 139
349 344 340 338 336 335 334 336 335 335 334 333 333 335 332 337 349 50 353 338 336 340 354 1 6 0 61 43 33 94 167 224 119 26 360 340 348 319 336 326 334 313 40 132 146
347 343 342 337 335 334 333 332 333 333 331 327 334 331 331 325 57 344 338 344 341 350 313 320 318 56 57 30 13 28 194 3 351 35 6 344 338 329 321 308 238 311 340 171 167
344 345 340 337 334 333 331 329 329 329 326 324 330 335 332 24 120 296 336 342 336 1 38 26 20 53 68 44 354 347 36 26 331 327 339 328 307 287 268 261 300 296 294 186 189
347 344 339 337 333 330 327 324 325 324 321 322 332 341 333 61 39 302 331 343 1 13 40 45 49 66 90 15 351 45 354 336 326 314 308 273 262 267 267 274 288 301 219 194 198
344 342 339 335 331 328 325 324 321 319 314 324 335 335 78 81 288 337 332 342 19 17 41 49 61 71 82 62 52 319 316 322 338 343 344 339 301 136 349 337 308 298 230 209 204
344 342 339 335 331 327 326 323 317 310 309 323 340 6 64 70 339 335 339 325 359 4 48 56 63 61 55 28 348 327 339 358 25 359 25 349 332 84 24 5 358 343 329 268 224
344 341 338 335 331 329 330 327 320 309 316 329 336 38 82 318 322 359 338 352 11 63 18 61 93 94 41 352 25 31 48 1 346 6 346 8 256 336 342 349 338 329 327 331 280
342 341 339 336 332 331 334 334 4 15 351 338 39 63 67 330 11 329 344 351 357 13 32 63 64 68 21 37 69 34 17 352 331 347 337 19 297 308 325 331 329 327 324 323 322
340 340 339 337 333 333 332 313 339 349 354 3 61 79 4 334 321 333 331 353 16 25 33 41 60 71 33 42 44 351 350 321 322 315 320 306 292 315 320 314 315 321 319 313 310
338 340 340 339 336 334 351 4 26 40 38 72 77 81 10 310 314 354 342 359 31 52 75 34 65 46 36 59 114 178 271 303 293 296 332 310 301 317 312 305 303 301 297 297 299
337 340 341 338 335 332 26 70 67 285 75 62 337 335 262 319 22 2 11 53 37 52 46 63 53 28 11 39 18 350 334 333 312 304 308 306 304 309 315 304 298 299 306 294 295
334 337 337 333 328 26 66 61 326 155 96 14 2 1 350 36 23 345 18 57 51 46 46 73 53 8 36 27 20 341 336 312 301 318 287 324 310 12 340 341 319 306 294 295 292
330 334 335 332 55 356 54 334 338 190 97 358 24 29 7 328 68 10 12 64 48 47 75 73 24 45 46 41 27 324 251 283 294 341 342 5 300 334 325 319 318 313 343 353 352
327 330 333 0 313 62 315 325 338 66 161 208 78 352 31 89 290 0 355 51 66 43 55 32 10 12 19 342 334 259 316 295 285 288 336 300 292 331 3 11 10 3 3 354 349
322 327 332 352 19 343 317 327 80 49 204 116 56 29 76 38 38 348 27 43 70 73 37 31 302 46 359 335 345 326 322 350 27 55 8 341 339 10 12 351 8 0 5 6 5
322 320 318 281 291 323 337 60 136 203 348 127 91 71 93 34 44 54 60 45 39 32 19 351 19 8 29 348 352 11 31 17 23 13 291 331 13 33 341 359 4 357 2 11 9
324 318 262 242 309 343 50 81 209 180 177 111 97 79 77 31 37 37 54 42 31 55 62 30 74 13 349 353 287 321 36 99 338 320 304 333 38 321 356 12 358 347 3 359 10
327 300 269 261 301 46 92 185 227 194 158 141 91 97 83 56 93 74 61 85 22 26 91 29 295 329 340 325 221 338 71 219 187 258 283 278 1 13 359 347 11 1 358 354 12
331 322 235 0 129 74 114 209 150 206 124 128 133 150 151 151 132 104 130 31 132 23 135 166 279 288 312 359 18 50 339 126 46 338 307 313 69 323 358 1 4 12 352 355 8
311 227 168 15 121 87 207 177 171 188 133 132 137 126 136 150 153 145 148 78 80 18 54 54 164 282 344 54 350 2 31 44 151 85 260 310 182 27 347 350 4 15 10 14 7
193 231 79 131 152 92 179 167 158 144 106 105 103 104 142 153 155 162 158 156 190 158 154 99 158 282 279 295 223 69 78 56 64 299 287 268 241 48 23 13 16 18 23 13 12
215 214 358 138 194 180 171 159 174 143 149 136 120 124 137 152 142 161 144 145 125 148 153 165 178 312 92 66 98 132 117 106 324 232 237 246 246 19 26 11 6 5 21 22 16
178 183 270 81 132 163 154 167 150 119 128 122 120 113 127 140 142 165 151 194 331 185 169 176 196 215 239 137 130 266 213 289 186 243 257 247 285 320 349 355 352 359 13 9 14
204 226 182 186 213 180 166 154 153 157 149 139 121 169 156 144 153 182 168 146 60 109 95 149 221 237 262 269 259 265 269 269 235 232 239 275 283 301 317 331 339 351 4 1 1
195 181 150 157 146 149 169 191 165 157 153 180 166 170 168 162 174 180 162 194 185 157 127 147 209 279 289 301 236 260 264 257 259 250 240 259 278 287 320 339 354 3 358 354 349
199 254 183 158 159 164 195 172 181 141 191 171 160 144 177 209 188 185 187 174 167 164 166 172 167 166 262 325 321 283 244 205 224 179 223 257 254 322 325 337 310 324 334 333 336